Hourly Weather Roundup
Issued by NWS Central Illinois

Home | Current Version | Previous Version | Text Only | Print | Product List | Glossary On
Versions: 1 2 3 4 5 6 7 8 9 10 11 12 13 14 15 16 17 18 19 20 21 22 23 24 25 26 27 28 29 30 31 32 33 34 35 36 37 38 39 40 41 42 43 44 45 46 47 48 49 50
000
NZUS43 KILX 111510
HWRILX

AREA WEATHER ROUNDUP
NATIONAL WEATHER SERVICE, LINCOLN IL
900 AM CST THU FEB 11 2016


CITY           SKY/WX    TMP DP  RH WIND       PRES   REMARKS
BLOOMINGTON    SUNNY     14   5  67 N7        30.33R WCI   4
CHAMPAIGN      SUNNY     16   4  59 N9        30.31R WCI   4
DANVILLE       SUNNY     13   4  65 NW7       30.29R WCI   3
DECATUR        SUNNY     17   5  59 NE8       30.33R WCI   7
EFFINGHAM      SUNNY     20   9  62 NE5       30.34R WCI  13
FLORA          CLOUDY    23  12  62 NE6       30.33R WCI  16
GALESBURG      SUNNY     13   5  69 N7        30.34S WCI   3
JACKSONVILLE   SUNNY     17   7  65 NE6       30.35R WCI   8
LACON          SUNNY     14   4  65 CALM      30.35R
LAWRENCEVILLE  MOSUNNY   21   7  54 CALM      30.33R
LITCHFIELD     CLOUDY    18   6  60 NE9       30.33R WCI   6
$$


CITY           SKY/WX    TMP DP  RH WIND       PRES   REMARKS
LINCOLN        SUNNY     17   7  66 N3        30.35R
MACOMB         SUNNY     15   6  69 NE8       30.37R WCI   3
MATTOON        SUNNY     15   5  64 NE10      30.31R WCI   2
MT CARMEL AP   CLOUDY    23   9  54 N5        30.33R WCI  17
OLNEY-NOBLE AP CLOUDY    21   9  58 NE6       30.33R WCI  14
PARIS          SUNNY     15   4  61 N6        30.33R WCI   6
PEORIA         SUNNY     15   4  61 NE7       30.35R WCI   5
PONTIAC        SUNNY     14   4  65 N7        30.34R WCI   4
RANTOUL        SUNNY     16   5  63 N8        30.32R WCI   5
ROBINSON       SUNNY     19   9  64 N7        30.34S WCI  10
SPRINGFIELD    SUNNY     18   5  57 NE7       30.35R WCI   9
TAYLORVILLE    SUNNY     18   5  57 NE8       30.34R WCI   7
$$

...REGIONAL REPORTS...


CITY           SKY/WX    TMP DP  RH WIND       PRES   REMARKS
CHICAGO O`HARE MOSUNNY   11  -1  58 N9        30.30R WCI  -2
KANKAKEE       SUNNY     15   1  55 N6        30.33R WCI   6
MOLINE         SUNNY     14   1  56 NE5       30.36R WCI   6
MOUNT STERLING CLOUDY    12   4  69 CALM      30.34R
MOUNT VERNON   CLOUDY    23  16  74 N8        30.32R WCI  14
PITTSFIELD     CLOUDY    17   5  58 NE6       30.35R WCI   9
QUINCY         CLOUDY    13   4  67 NE5       30.34R WCI   5
ROCKFORD       SUNNY     11   0  61 NW7       30.34R WCI   0
$$


CITY           SKY/WX    TMP DP  RH WIND       PRES   REMARKS
BURLINGTON     SUNNY     14   6  70 NE8       30.34S WCI   3
CEDAR RAPIDS   SUNNY     11   4  73 NE3       30.33R
DES MOINES     MOSUNNY   11  -1  58 NE3       30.35R
KIRKSVILLE     CLOUDY    15   5  64 NE8       30.33R WCI   4
OTTUMWA        CLOUDY    11   3  70 NE7       30.34R WCI   0
ST LOUIS       CLOUDY    23  16  74 NE6       30.33R WCI  16
$$


CITY           SKY/WX    TMP DP  RH WIND       PRES   REMARKS
TERRE HAUTE    SUNNY     16   6  65 N6        30.32R WCI   7
EVANSVILLE     CLOUDY    25  15  66 N9        30.32R WCI  15
INDIANAPOLIS   MOSUNNY   16   5  62 NW3       30.28R
LAFAYETTE      SUNNY     15   5  64 NW9       30.31R WCI   3
MADISON        SUNNY      6  -3  66 NW5       30.31R WCI  -3
MILWAUKEE      MOSUNNY    9  -2  61 NW8       30.29R WCI  -3
$$





USA.gov is the U.S. government's official web portal to all federal, state and local government web resources and services.